weather.gov     
National Weather Service

Other Surface Observations
NWS Homepage
This page is being discontinued on March 12, 2014.
The same data is available at this site. Please update your bookmarks.
Thank you, and we apologize for the inconvenience.
Please send an email to SR-SRH.Webmaster@noaa.gov with any concerns.


Current Version
Previous Version:    01  02  03  04  05  06  07  08  09  10  11  12  13  14  15  16  17  18  19  20  21  22  23  24  25  26  27  28  29  30  
   31  32  33  34  35  36  37  38  39  40  41  42  43  44  45  46  47  48  49  50  51  52  53  54  55  56  57  58  59  60  
[Printable]
617
SXUS52 KTAE 021218
OSOTAE
OSOTAE
North Florida/South Alabama/Southwest Georgia Weather Roundup
National Weather Service Tallahassee Florida
800 AM EDT THU OCT 02 2014

Note: "fair" indicates few or no clouds below 12,000 feet with no
significant weather and/or obstructions to visibility.

!FLZ017-115-028-034-025-021300
...North Florida...

CITY           SKY/WX    TMP DP  RH WIND       PRES   REMARKS
TALLAHASSEE    PTCLDY    68  67  96 CALM      30.05R
APALACHICOLA   CLEAR     73  70  90 NE5       30.02R
PERRY          PTCLDY    66  66 100 CALM      30.05R FOG
CROSS CITY       N/A     72  70  93 CALM      30.03R
JACKSONVILLE   MOCLDY    72  72 100 CALM      30.03R
$$

!FLZ112-006-005-002-011-021300
...Florida Panhandle...

CITY           SKY/WX    TMP DP  RH WIND       PRES   REMARKS
MARIANNA       CLOUDY    69  69 100 E5        30.04R
BONIFAY        FAIR      66  65  96 CALM      30.05R
PANAMA CITY NW FAIR      69  66  90 CALM      30.02R
TYNDALL AFB    PTCLDY    71  71 100 NE2       30.03R
TYND DRONE APT NOT AVBL
DE FUNIAK SPR  FAIR      70  68  93 CALM      30.04R
EGLIN AFB      PTCLDY    72  69  93 E1        30.02R
DESTIN         PTCLDY    75  72  90 E3        30.02R
HURLBURT       PTCLDY    71  67  87 NE3       30.01R
CRESTVIEW      PTCLDY    68  67  96 CALM      30.04S
PENSACOLA      LGT RAIN  72  71  97 CALM      30.01R
$$

!ALZ063-066-021300
...South Alabama...

CITY           SKY/WX    TMP DP  RH WIND       PRES   REMARKS
DOTHAN         PTCLDY    67  67 100 E3        30.09R FOG
OZARK CAIRNS   PTCLDY    66  64  94 NE3       30.05R FOG
FT RUCKER HELI PTCLDY    65  64  97 CALM      30.04R
RUCKER HELI 3  FAIR      64  64  98 N1        30.07R
RUCKER HELI 2  FAIR      67  66  97 CALM      30.05R
FLORALA APT    CLEAR     66  65  96 CALM      30.05R FOG
ANDALUSIA      CLEAR     68  64  87 CALM      30.04R FOG
TROY           CLEAR     61  60  97 CALM      30.06R
EUFALA         FAIR      64  62  93 CALM      30.06R
MOBILE         MOCLDY    71  71 100 E3        30.01R
$$

!GAZ120>161-021300
...Southwest and South Central Georgia...

CITY           SKY/WX    TMP DP  RH WIND       PRES   REMARKS
THOMASVILLE    MOCLDY    64  64 100 CALM      30.07R
BAINBRIDGE     CLEAR     68  68 100 NE3       30.06R FOG
MOODY AFB      CLEAR     68  67  96 N2        30.06R
VALDOSTA       PTCLDY    68  66  93 CALM      30.06R
MOULTRIE       MOCLDY    68  68 100 CALM      30.08R FOG
BLAKELY        CLEAR     64  63  94 CALM        N/A
ALBANY         PTCLDY    65  63  93 CALM      30.09R
TIFTON         CLOUDY    66  66 100 CALM      30.07R FOG
FITZGERALD     FOG       65  62  91 CALM      30.10R VSB<1/4
CORDELE        PTSUNNY   66  64  94 CALM      30.09R
AMERICUS       FAIR      61  61 100 CALM      30.10R
HOMERVILLE     MOCLDY    70  70 100 CALM      30.07R
$$

!GMZ750-755-770-775-021300
...Coastal and Buoy Obs...

STATION/POSITION TIME  TEMP    WIND        PRES    VSBY  WAVE
                       AIR SEA DIR/SP/G                  HT/PER
                 (UTC) (F)     (DEG/KT/KT) (MB)    (MI)  (FT/S)
KEATON BEACH     1200   70      50/  3/  5 1017.3R
CEDAR KEY        1200   75      60/  4/  5 1017.3R
C TOWER          1200   79     120/  4/  4 1016.6R
APALACHICOLA BUO 1200   81 83  110/  2/  2 1016.5R         0
PANAMA CITY BUOY 1140   81 83  120/  8/ 10 1016.2R         1/ 4
MOBILE BUOY      1117   81 82  150/ 12/ 14 1015.7R         2/ 3
ORANGE BCH AL BU 1200   81 81  160/ 10/ 12 1015.8R         1/ 3
$$




U.S. Dept. of Commerce
NOAA National Weather Service
1325 East West Highway
Silver Spring, MD 20910
E-mail: w-nws.webmaster@noaa.gov
Page last modified: May 16, 2007
NATIONAL WEATHER SERVICE: for Safety, for Work, for Fun - FOR LIFE